Terug naar catalogus

ORBCOMM FM 108

ActiefCommunicatieLEO
NORAD 41187·PAYLOAD·🇺🇸 United States

Gelanceerd Dec 22, 2015 vanaf Cape Canaveral Space Force Station

Loading…

Volgende Passages (komende 24 uur)

TLE

VersSource: Space-Track

Epoch: Sep 14, 2026, 01:00 UTC

1 41187U 15081J   26257.04197811  .00000450  00000-0  13121-3 0  9999
2 41187  47.0041 122.0563 0002561 253.1822 106.8783 14.58978907573056

Volg ORBCOMM FM 108 in realtime met AllMySat

Download on the App Store